Simultaneous Nadir Overpasses (SNOs) Predictions

Prediction of SNOs between GOES-16 and LANDSAT-8 Satellite Orbit:

Table of predicted SNOs for the next 14.0 days since TLE Epoch: 4/27/2024
Index Date Time (GOES-16) GOES-16 Lat,Lon LANDSAT-8 Lat,Lon Distance(km) Time Diff (sec)
1 04/27/2024 15:08:34 0.05, -75.22 -0.23, -73.92 146.98 80
2 04/28/2024 03:29:58 -0.04, -75.20 -0.85, -79.12 444.92 80
3 04/29/2024 14:56:20 0.04, -75.22 -0.84, -70.96 483.89 80
4 04/30/2024 03:17:44 -0.04, -75.21 -0.23, -76.16 107.86 80
5 05/02/2024 03:02:49 -0.03, -75.22 0.37, -73.19 230.13 80
6 05/02/2024 15:24:03 0.03, -75.23 0.70, -78.34 354.11 80
7 05/04/2024 15:11:48 0.03, -75.25 0.05, -75.38 14.65 80
8 05/06/2024 15:02:13 0.03, -75.28 -0.58, -72.41 325.73 80
9 05/07/2024 03:23:35 -0.02, -75.27 -0.51, -77.60 264.95 80
10 05/09/2024 03:08:38 -0.02, -75.30 0.11, -74.63 76.08 80
11 05/11/2024 02:56:21 -0.01, -75.33 0.78, -71.66 417.67 80
